Погода в Бугаме

Нигерия     4°48′48″N   7°02′38″E
темп.,
°C
ветер,
м/с
пор.,
м/с
влажн.,
%
обл.,
%
осадки,
мм/ч
давл.,
гПа
погр.,
м
13 апреля, вт
вт1301:00+26юз238498 0.0 1010100
04:00+26зюз228447 0.0 100942
07:00+26юз258396 0.0 1011190
10:00+31ю346298 0.0 10131227
13:00+35ююв434561 0.0 10112014
16:00+32ю455373 0.2 1008951
19:00+29ююз4767100 0.2 1009487
22:00+27юз2680100 0.8 1013258
14 апреля, ср
ср1401:00+27ю1183100 4.0 101234
04:00+25вюв4886100 0.1 1010331
07:00+25юв4883100 0.1 1010359
10:00+31ю345298 0.0 1012724
13:00+35ююв6536100 0.0 10101887
16:00+33ююв544383 0.0 10081259
19:00+29ю4763100 0.0 1009411
22:00+27юз257578 0.0 1012273
15 апреля, чт
чт1501:00+27юз2680100 0.0 1010302
04:00+26ю2483100 0.0 1009178
07:00+27ююз128122 0.0 1011156
10:00+32ю235420 0.0 10111113
13:00+36ююв32398 0.0 10082020
16:00+34ююв64507 0.0 1006949
19:00+29ююз466715 0.1 1007463
22:00+28зюз477623 0.0 1009535
16 апреля, пт
пт1601:00+27юз37815 0.0 1008464
04:00+27юз258486 0.0 1008296
07:00+27юз2582100 0.1 1010234
10:00+32ююз3457100 0.1 10111394
13:00+33ю5454100 0.3 10091518
16:00+31ююз3460100 1.4 10071183
19:00+28ююз587266 1.5 1007481
22:00+27юз248127 0.3 1010158
17 апреля, сб
сб1701:00+26ююз2285100 0.8 100964
04:00+26ююз128878 1.1 100853
07:00+26ю2686100 1.1 1010264
10:00+30ю4567100 0.1 10111069
13:00+33ююз4452100 0.2 10091396
16:00+31ю5557100 0.0 10081330
19:00+28ююз3570100 0.0 1009278
22:00+27юз2579100 0.0 1010239